This is the latest recevied weather packets stored in our database for station/object N6AMQ-1. If no packets are shown the sender has not sent any weather packets the latest 1 day(s).
| Time | Temp. | Humidity | Pressure | Rain* | Wind** | Luminosity | Snow |
|---|---|---|---|---|---|---|---|
| 1778023968 | 17.78° C | 66% | 1015.9 hPa | 0 mm | 0 m/s | - | - |
| 1778023668 | 17.78° C | 65% | 1015.9 hPa | 0 mm | 2.24 m/s, 338° | - | - |
| 1778023368 | 17.78° C | 66% | 1015.9 hPa | 0 mm | 0.89 m/s, 292° | - | - |
| 1778023068 | 17.78° C | 66% | 1015.9 hPa | 0 mm | 0 m/s | - | - |
| 1778022830 | 17.78° C | 66% | 1015.9 hPa | 0 mm | 0 m/s | - | - |
| 1778022768 | 17.78° C | 66% | 1015.9 hPa | 0 mm | 0 m/s | - | - |
| 1778022468 | 17.78° C | 65% | 1015.9 hPa | 0 mm | 1.34 m/s, 315° | - | - |
| 1778021868 | 17.78° C | 65% | 1015.9 hPa | 0 mm | 0.45 m/s, 315° | - | - |
| 1778021630 | 18.33° C | 65% | 1015.9 hPa | 0 mm | 1.79 m/s, 270° | - | - |
| 1778021568 | 18.33° C | 65% | 1015.9 hPa | 0 mm | 1.79 m/s, 270° | - | - |
| 1778021268 | 18.33° C | 64% | 1015.9 hPa | 0 mm | 1.34 m/s, 315° | - | - |
| 1778020668 | 17.78° C | 64% | 1015.9 hPa | 0 mm | 0.45 m/s, 270° | - | - |
| 1778020431 | 17.78° C | 64% | 1015.9 hPa | 0 mm | 0.89 m/s, 270° | - | - |
| 1778020368 | 17.78° C | 65% | 1015.9 hPa | 0 mm | 0.89 m/s, 270° | - | - |
| 1778020068 | 17.78° C | 64% | 1015.9 hPa | 0 mm | 0.45 m/s, 338° | - | - |
| 1778019768 | 17.78° C | 64% | 1015.9 hPa | 0 mm | 0.45 m/s, 248° | - | - |
| 1778019468 | 17.78° C | 64% | 1015.9 hPa | 0 mm | 0.89 m/s, 270° | - | - |
| 1778019230 | 17.78° C | 64% | 1015.9 hPa | 0 mm | 1.34 m/s, 315° | - | - |
| 1778019168 | 17.78° C | 65% | 1015.9 hPa | 0 mm | 0.89 m/s, 292° | - | - |
| 1778018568 | 17.78° C | 65% | 1015.9 hPa | 0 mm | 0.89 m/s, 270° | - | - |
| 1778018268 | 17.78° C | 65% | 1015.9 hPa | 0 mm | 0.89 m/s, 292° | - | - |
| 1778018076 | 17.78° C | 64% | 1015.9 hPa | 0 mm | 1.34 m/s, 315° | - | - |
| 1778018030 | 17.78° C | 64% | 1015.9 hPa | 0 mm | 1.34 m/s, 315° | - | - |
| 1778017968 | 17.78° C | 65% | 1015.9 hPa | 0 mm | 1.34 m/s, 315° | - | - |
| 1778017368 | 17.22° C | 65% | 1015.9 hPa | 0 mm | 0.89 m/s, 225° | - | - |
* Rain latest hour (hover to see other rain measurements)
** Current wind speed in m/s (hover to see current wind gust speed)